RH
91 87 83 76 69 67 62 50 46 42 39 42 42 40 34 34 27 38 45 19 14 14 21 24 24 26 25 20 18 18 22 23 21 19 18 57 60 64 60 58 76 81 74 81 100
99 97 94 85 78 72 68 63 50 43 39 40 42 41 35 33 33 54 26 19 15 16 25 22 21 24 24 23 20 19 23 20 17 16 35 56 62 57 58 62 78 79 83 98 100
92 100 99 98 87 81 73 68 63 50 42 39 42 43 34 30 43 24 25 24 22 24 22 20 19 18 20 22 22 20 21 19 15 19 48 52 58 58 56 56 62 73 94 96 99
95 95 91 98 99 90 83 72 68 65 49 41 43 45 34 40 16 24 18 22 24 20 23 22 20 25 26 25 21 22 18 18 23 50 49 46 55 59 55 60 66 65 75 84 91
91 95 97 100 98 99 94 83 70 69 64 47 42 48 37 39 27 14 26 24 22 21 22 23 24 25 25 24 22 21 26 42 42 48 48 50 53 56 80 81 69 74 83 86 88
80 80 90 98 100 93 94 95 81 69 67 56 42 50 51 36 15 27 30 27 24 23 23 23 21 22 24 25 27 32 40 46 50 48 47 40 49 47 73 75 82 84 82 80 87
69 79 82 96 100 88 94 98 88 77 68 61 41 57 68 34 15 21 38 25 25 22 23 18 18 22 24 26 30 37 39 37 43 43 39 39 44 57 73 76 79 83 86 88 88
81 81 77 80 89 90 93 98 90 80 72 45 52 64 48 18 16 15 18 22 22 27 25 21 21 24 25 24 26 34 34 37 33 38 36 35 41 63 74 75 71 76 78 77 78
87 78 84 70 86 90 91 95 85 79 57 62 67 60 41 22 21 19 17 19 23 25 26 22 22 27 27 28 29 29 32 36 30 32 32 34 43 53 71 70 61 69 67 79 78
88 85 79 70 72 91 90 80 74 62 76 76 78 60 37 21 23 26 26 25 20 26 26 27 31 30 31 27 34 33 33 33 32 27 32 31 39 54 68 72 61 68 71 77 76
89 85 77 75 68 88 94 81 41 59 82 59 46 45 30 28 34 28 24 26 24 26 31 31 32 35 30 30 26 29 32 34 31 26 29 32 37 54 63 73 74 70 68 67 79
83 85 84 70 72 88 100 81 49 67 80 59 55 50 41 37 41 33 23 23 26 27 34 32 36 28 27 30 32 34 34 32 30 28 33 34 32 40 56 65 67 65 71 64 62
81 82 84 78 74 98 93 88 60 60 86 67 56 47 43 39 40 35 24 26 27 32 36 37 30 32 33 36 36 35 36 36 32 32 32 35 30 37 45 54 61 62 61 64 64
75 80 81 86 82 97 88 68 73 76 74 44 48 47 48 42 39 32 23 24 29 31 37 34 32 34 37 36 35 39 33 33 37 33 30 28 30 28 35 49 57 60 64 65 68
72 74 80 86 99 85 70 74 77 71 40 24 55 41 46 33 25 38 22 24 34 33 33 30 40 39 38 37 34 34 34 35 34 34 34 35 30 24 39 41 43 49 55 58 58
77 76 84 90 90 88 79 81 78 87 74 34 48 51 52 42 24 26 25 24 28 36 36 30 31 34 32 32 32 34 36 36 40 41 43 37 33 28 26 31 35 36 44 51 56
83 75 86 93 86 80 82 81 93 89 43 34 52 46 46 40 26 29 30 31 34 39 42 32 32 29 30 31 32 33 36 41 45 47 42 40 41 31 30 27 28 30 41 44 51
82 76 81 90 74 93 86 93 98 62 56 42 36 46 40 32 28 28 33 33 28 30 38 35 34 30 30 28 30 36 35 47 39 44 37 42 41 25 29 28 33 38 38 42 47
81 72 89 92 84 92 96 95 67 62 49 42 31 48 46 31 28 30 37 32 27 29 31 42 33 33 35 33 30 41 40 37 53 56 57 43 33 22 27 31 35 37 50 42 45
81 90 84 76 78 99 98 73 69 52 49 52 55 38 51 38 33 33 37 31 28 28 27 35 34 39 39 34 38 35 39 46 50 50 47 36 36 28 24 24 33 37 42 50 54
84 96 65 72 80 96 92 77 58 51 48 53 64 62 39 39 37 39 36 27 25 30 27 35 35 34 38 40 37 44 43 44 41 46 46 47 34 31 27 27 32 34 40 45 55
92 96 68 62 94 87 80 63 53 49 48 54 52 61 59 39 43 41 36 31 31 31 30 37 44 45 37 33 33 34 37 41 54 46 54 51 42 26 29 30 32 35 39 41 54
97 94 73 72 92 82 68 64 55 55 52 56 56 55 54 50 37 42 39 30 34 33 37 42 42 40 33 34 39 40 39 42 48 55 53 61 42 28 28 27 28 32 34 42 57
98 98 98 91 63 64 73 67 68 52 56 51 55 54 51 50 50 36 40 35 42 33 50 37 46 40 36 31 37 48 45 44 44 59 51 47 37 30 26 27 26 29 30 32 50
97 99 85 92 84 71 62 60 62 62 56 59 62 59 57 53 52 43 42 48 45 62 45 40 41 44 37 32 36 38 38 46 42 42 47 37 41 30 27 27 27 28 30 31 35
98 100 78 81 68 73 67 67 65 58 56 60 64 56 51 60 50 46 44 48 46 52 51 47 43 48 42 46 40 40 36 41 43 39 37 38 39 31 29 30 29 36 44 36 36
86 93 86 68 73 74 67 62 66 53 55 48 53 54 62 47 48 47 45 44 45 42 53 51 58 58 49 49 46 58 49 42 40 39 38 42 32 33 30 31 42 52 58 63 62
Wind_Speed
17 18 18 17 18 18 19 20 21 21 22 24 26 26 28 30 33 13 5 1 3 12 9 8 6 5 3 3 3 3 1 2 4 2 3 1 1 1 2 3 2 3 0 4 19
18 18 19 19 18 19 19 21 22 22 22 24 25 26 27 29 25 7 1 3 9 11 8 9 5 6 3 3 2 2 3 7 5 4 3 1 2 3 3 3 2 2 4 14 19
17 17 19 20 19 20 20 20 22 23 24 24 25 26 26 23 5 3 3 3 10 9 5 3 5 3 3 2 3 4 5 2 3 7 3 3 3 2 1 3 4 6 12 10 14
19 18 20 21 20 20 21 21 22 24 24 24 24 25 23 8 2 1 3 2 8 10 4 2 2 3 3 3 3 3 4 4 3 1 2 3 3 3 1 3 6 8 14 12 10
21 19 17 19 20 20 22 22 22 24 24 24 24 23 9 4 8 4 4 5 12 10 5 3 2 2 1 2 2 4 3 1 3 3 3 5 5 2 6 7 5 12 11 10 8
18 20 19 17 19 20 23 24 23 24 24 25 23 17 2 4 3 2 6 9 9 8 5 5 2 2 1 2 3 3 1 3 1 2 3 3 1 2 2 3 7 7 7 7 9
19 18 18 19 16 21 24 26 25 25 27 28 22 7 1 14 5 6 8 4 7 7 3 6 3 2 0 2 2 2 1 3 1 2 1 2 1 2 1 4 8 7 9 9 10
20 19 19 18 18 20 23 26 26 27 31 24 8 3 7 9 10 13 13 11 11 11 12 5 4 2 2 1 3 2 3 2 0 3 1 3 3 2 5 5 8 7 10 7 8
19 19 19 20 16 18 22 25 27 29 18 3 4 3 9 6 8 5 14 7 5 5 6 3 3 1 2 3 1 4 1 1 3 4 2 5 2 6 9 7 7 8 6 8 9
20 18 18 17 18 17 20 23 25 9 2 3 2 2 7 1 3 2 5 9 3 4 3 2 3 1 2 2 5 4 2 1 3 1 3 4 4 8 12 10 8 7 9 9 11
20 19 18 16 16 16 17 10 5 2 3 7 3 4 4 7 3 3 5 9 4 3 3 1 2 5 6 7 4 5 4 3 3 3 3 4 4 13 14 11 11 10 9 10 11
19 17 18 14 14 13 8 3 2 0 9 13 18 11 20 4 5 4 8 6 5 6 3 1 5 4 4 4 5 4 4 5 5 2 5 2 6 7 13 15 16 16 14 14 11
17 17 16 13 12 12 7 11 4 10 4 7 8 6 6 13 9 7 8 4 4 5 6 5 2 5 4 3 5 4 4 4 6 2 1 1 2 4 7 11 11 13 15 14 16
19 16 16 11 6 7 4 1 10 6 3 6 5 6 7 9 5 11 12 5 2 10 8 5 2 5 4 4 5 3 6 3 2 2 1 2 2 3 7 13 13 16 16 17 17
21 20 14 12 5 4 4 4 6 2 4 2 3 7 6 7 7 7 8 3 9 6 6 4 6 4 5 5 6 5 4 3 1 2 1 1 2 3 3 11 18 20 19 19 18
23 21 13 13 17 11 9 14 1 1 9 4 5 6 6 3 1 4 4 4 4 5 1 4 0 4 5 4 4 5 3 4 3 2 1 1 3 4 4 5 5 16 18 19 19
24 22 18 15 5 13 15 5 3 7 4 3 4 5 5 6 3 4 10 8 6 6 4 1 3 2 3 3 1 2 3 0 1 1 2 4 2 8 5 8 10 11 15 18 18
23 21 23 22 24 6 7 3 10 6 8 5 1 3 6 5 4 3 9 12 3 5 4 6 4 7 5 5 5 3 4 4 3 3 2 2 5 4 4 7 10 9 7 12 16
23 24 21 22 23 12 3 10 8 7 4 4 1 3 4 4 4 3 7 13 13 8 7 5 5 2 2 3 3 3 3 1 6 2 0 2 4 9 3 7 8 8 6 7 13
25 15 21 24 23 14 6 21 8 6 2 1 5 5 9 6 6 8 8 5 8 9 4 7 3 1 2 2 4 3 7 3 1 3 3 2 3 4 5 4 5 7 8 4 6
23 6 11 27 24 7 15 16 14 8 1 1 2 2 4 6 8 6 10 2 12 9 4 5 3 1 3 5 9 4 3 3 4 2 2 2 3 6 6 3 4 6 8 8 6
10 9 21 40 13 10 20 21 12 21 3 4 2 3 3 5 6 6 10 6 9 12 10 6 4 5 6 2 2 2 6 6 3 4 1 2 6 4 8 7 6 8 7 8 7
4 5 25 34 14 16 15 21 16 13 12 6 4 5 0 2 3 5 6 4 9 9 11 8 2 3 2 1 1 3 4 3 4 3 7 5 5 1 5 6 5 8 5 5 7
5 7 5 12 16 21 20 21 24 19 8 8 4 3 1 3 3 2 5 3 7 5 6 9 4 6 8 8 5 4 6 7 6 3 5 7 10 8 8 5 9 6 5 5 7
7 5 7 14 20 22 20 15 26 16 14 8 6 6 4 4 2 3 2 2 2 5 3 5 6 6 5 4 5 5 5 11 10 7 7 12 11 11 10 5 5 4 4 7 6
7 5 6 5 23 23 19 22 28 27 14 14 7 13 12 4 6 3 5 3 1 0 5 3 4 6 4 3 6 4 6 8 7 4 9 8 9 11 5 4 5 4 5 6 7
15 7 4 17 18 19 26 24 18 20 16 11 15 6 10 18 8 2 3 4 3 1 3 3 6 4 5 1 4 4 7 10 5 5 7 10 11 1 5 5 2 3 4 4 4
Wind_Direction
315 319 322 327 330 335 339 340 340 340 339 339 341 341 337 333 327 323 252 50 150 154 144 144 140 137 117 107 103 140 171 246 258 227 279 302 107 113 164 134 72 351 320 149 144
307 312 316 319 323 328 333 335 338 336 337 337 339 341 338 333 327 284 103 148 136 155 153 172 162 157 116 115 123 161 212 220 210 207 247 224 176 177 174 163 123 107 111 144 140
295 308 307 313 318 323 326 330 333 335 336 335 338 340 339 333 328 224 119 126 180 165 168 204 165 163 122 116 182 180 233 242 249 243 195 148 210 148 161 229 195 191 156 152 140
284 291 294 302 310 316 319 324 328 331 334 333 334 338 340 348 320 147 321 262 185 186 167 174 184 138 121 208 171 247 272 261 288 193 131 157 105 55 349 307 282 192 159 158 140
287 288 297 297 298 310 315 317 322 324 329 330 329 337 350 2 255 285 308 136 155 161 178 183 244 130 175 210 185 221 290 314 356 102 76 105 50 95 338 335 145 143 152 143 142
295 291 287 291 298 301 308 312 315 318 322 322 322 328 357 304 230 203 123 135 159 162 195 181 217 216 246 244 220 172 248 92 101 95 93 67 91 349 325 86 99 123 141 155 149
302 303 290 291 296 296 300 305 310 315 315 314 313 305 183 244 220 217 239 189 183 181 204 220 187 150 130 305 170 188 158 106 117 162 47 133 328 21 178 172 148 174 151 153 134
306 303 304 291 295 297 301 303 306 312 309 310 286 206 248 264 272 257 244 252 239 231 237 242 155 178 196 133 15 33 61 39 325 163 328 190 284 165 207 180 160 146 137 144 137
297 299 303 303 290 296 301 304 307 306 308 314 175 170 262 288 267 273 228 217 164 187 212 130 129 144 96 120 46 29 137 92 334 240 143 214 244 178 206 190 161 168 184 152 153
292 300 296 304 299 295 304 311 304 290 94 124 116 336 259 252 301 256 228 189 160 125 104 145 72 156 76 140 199 188 181 199 262 175 223 237 208 179 190 207 195 196 186 174 171
288 292 300 301 303 300 321 331 345 235 191 222 196 260 280 314 289 240 188 154 120 114 186 46 175 215 212 203 182 177 180 235 237 241 247 233 211 203 191 198 203 209 202 200 191
282 285 298 298 300 296 315 271 250 321 299 244 250 248 261 301 306 270 179 149 145 195 144 82 232 213 183 162 151 186 229 263 306 303 208 193 240 214 202 213 203 198 209 211 202
268 278 292 295 297 287 253 254 229 319 270 278 215 207 202 175 211 250 170 160 146 152 185 186 225 155 156 168 180 207 206 220 267 330 16 251 242 193 222 237 224 224 213 212 212
263 269 276 290 283 245 246 132 324 218 286 264 225 252 169 152 227 201 192 149 126 192 158 228 230 186 179 211 182 254 220 204 221 205 268 303 281 238 207 223 235 229 216 215 207
255 255 258 247 305 227 164 49 17 92 299 223 169 147 155 195 145 209 178 68 159 162 150 228 172 180 202 214 181 229 157 176 151 123 189 221 265 276 165 224 228 226 221 222 217
245 242 240 245 249 214 177 330 139 166 246 305 142 169 148 244 204 108 138 69 123 120 64 209 184 171 204 201 195 134 121 57 69 115 234 250 239 276 239 231 251 232 222 220 218
238 235 235 228 232 246 258 296 150 221 320 224 193 162 181 181 186 139 170 164 156 163 176 77 221 220 178 152 151 140 92 215 130 157 201 130 161 251 276 258 252 262 222 220 212
234 232 238 236 230 258 174 181 216 197 233 303 179 108 181 156 223 133 144 182 216 122 141 180 251 182 183 199 193 172 172 166 190 191 189 206 219 238 226 295 288 273 266 230 214
224 236 240 237 223 234 218 207 218 190 208 225 128 145 217 215 178 150 174 193 187 168 173 154 237 188 218 140 160 166 195 107 103 24 188 248 285 277 252 290 301 299 304 248 218
216 230 232 221 212 212 217 216 214 204 193 203 207 188 184 185 171 179 177 189 191 188 166 194 143 171 154 130 48 181 143 136 67 175 241 236 265 246 305 325 326 310 306 308 231
204 222 213 205 195 213 216 209 201 248 332 194 258 263 216 177 182 187 188 228 186 179 127 136 128 193 122 222 179 147 181 75 120 161 215 267 247 216 244 279 297 280 280 279 236
197 214 176 181 190 211 219 202 231 225 221 253 240 243 242 188 173 190 192 220 173 145 171 192 144 184 192 219 230 202 185 158 153 192 196 251 254 237 251 263 272 274 274 275 265
196 194 184 175 194 206 210 214 221 223 220 187 221 219 267 267 193 200 197 232 154 150 164 176 186 189 258 16 2 212 190 144 105 97 194 212 255 217 274 296 272 265 263 251 252
174 173 189 199 220 214 191 201 211 203 241 207 199 186 206 280 212 201 207 212 189 192 137 128 142 167 219 224 161 191 196 182 158 154 186 220 251 263 273 269 288 270 276 275 232
195 204 198 196 206 217 205 196 195 197 209 172 203 208 170 230 313 211 152 119 137 175 137 144 186 180 232 236 190 209 182 176 197 212 199 243 218 247 251 232 264 301 303 296 272
170 182 203 215 211 211 209 208 197 197 187 207 205 197 216 217 197 137 46 80 298 267 165 180 201 161 205 124 204 222 223 188 216 218 244 254 249 232 241 249 251 289 323 307 304
189 184 216 204 192 199 212 203 199 185 212 217 210 204 200 227 261 295 238 241 238 113 202 184 139 133 221 191 144 304 211 197 195 206 205 229 247 207 239 224 250 307 328 319 355